Meteo Giornale » Osservazioni meteo Italia » Brescia-Montichiari

ore: 13:50 - Osservazioni Meteo Brescia-Montichiari
Lat. 45° 24' N Lon. 10° 18' E Alt. 104 metri s.l.m.

sereno Europe/Rome

24 °C

Sereno

Temp. 24 Ore

16 °C

26 °C

Nord

5.5 Km/h

Dew point 8 °C

Umidità 35 %

Visibilità  10 Km

Il sole sorge alle ore 05:35

Il sole tramonta alle ore 20:56

Data e Ora Cielo e Fenomeni T °C DP °C Um. % Pres. hPa Vis. km Vento km/h
Oggi h: 13:50 sereno Sereno 24 8 35 1018 10 N 5.5
Oggi h: 12:50 sereno Sereno 24 9 38 1018 10 N 5.5
Oggi h: 11:50 sereno Sereno 23 8 38 1019 10 E 9.3
Oggi h: 10:50 sereno Sereno 22 8 40 1019 10 E/NE 16.7
Oggi h: 09:50 nuvoloso Nuvoloso 22 9 43 1019 10 E 14.8
Oggi h: 08:50 molto_nuvoloso Molto Nuvoloso 20 8 45 1019 10 E/NE 11.1
Oggi h: 07:50 molto_nuvoloso Molto Nuvoloso 19 9 52 1018 10 E/NE 13
Oggi h: 06:50 molto_nuvoloso Molto Nuvoloso 18 8 51 1018 10 E/NE 11.1
Oggi h: 05:50 sereno Sereno 17 8 55 1018 10 NE 11.1
Oggi h: 04:50 nuvoloso Nuvoloso 16 9 63 1018 10 E/NE 9.3
Oggi h: 03:50 nuvoloso Nuvoloso 17 9 59 1018 10 E/NE 11.1
Oggi h: 02:50 nuvoloso Nuvoloso 19 8 48 1018 10 E/NE 9.3
Oggi h: 00:50 nuvoloso Nuvoloso 19 9 52 1018 10 E 11.1
Ieri h: 23:50 nuvoloso Nuvoloso 20 10 52 1018 10 E 11.1
Ieri h: 22:50 poco_nuvoloso Poco Nuvoloso 20 11 56 1017 10 E 13
Ieri h: 21:50 poco_nuvoloso Poco Nuvoloso 21 12 56 1016 10 E/SE 18.5
Ieri h: 20:50 poco_nuvoloso Poco Nuvoloso 22 12 53 1015 10 E/SE 9.3
Ieri h: 19:50 molto_nuvoloso Molto Nuvoloso 24 12 47 1015 10 E/SE 14.8
Ieri h: 18:50 molto_nuvoloso Molto Nuvoloso 24 12 47 1015 10 E/SE 14.8
Ieri h: 17:50 molto_nuvoloso Molto Nuvoloso 25 12 44 1015 10 S/SE 14.8
Ieri h: 16:50 nuvoloso Nuvoloso 25 12 44 1016 10 E 18.5
Ieri h: 15:50 molto_nuvoloso Molto Nuvoloso 25 12 44 1016 10 S/SE 13
Ieri h: 14:50 nuvoloso Nuvoloso 26 12 41 1016 10 E 7.4